KNUI

Details ICAO KNUI
Name WEBSTER NOLF
Region United States
Timezone America/New_York (UTC-4.0)
Plans Departing 0
Arriving 0
Stats Elevation 22 ft / 7 m (AMSL)
Location 38.146138° -76.428457°
Runways 2
Magnetic Variation 11.033° W
Sunrise 2018-05-24 09:49:50 UTC / 2018-05-24 05:49:50 Local
Sunset 2018-05-25 00:18:10 UTC / 2018-05-24 20:18:10 Local
Advertisement - Login to hide

Runways

ID Width Length Bearing (true) Bearing (mag) Surface Threshold Offset Overrun Length
08 150 ft / 46 m 4,992 ft / 1,522 m 65.83° 76.86° Asphalt 0 ft / 0 m 0 ft / 0 m
15 150 ft / 46 m 5,002 ft / 1,525 m 141.87° 152.90° Asphalt 0 ft / 0 m 0 ft / 0 m
26 150 ft / 46 m 4,992 ft / 1,522 m 245.84° 256.87° Asphalt 0 ft / 0 m 0 ft / 0 m
33 150 ft / 46 m 5,002 ft / 1,525 m 321.88° 332.91° Asphalt 0 ft / 0 m 0 ft / 0 m

Map

Weather


0- 5 10 15 20 25 30 35+ Temperature / ° C

Clouds and Precipitation
Forecast for 2018-05-24 12:00 UTC. Updated 4 hours ago

Ground ~20,000 ft ~40,000 ft Winds

METAR

KNUI 241453Z AUTO VRB05KT 8SM CLR 25/14 A3017 RMK AO2 SLP215 T02500139 51006

TAF

Not found

Frequencies

Tower 126.20 MHz NAVY WEBSTER TWR
Approach 120.05 MHz PATUXENT APP/DEP
Warning: Do not use this data for real-world aviation or navigation. No guarantee of current accuracy is given.